Location: Recife
(8.0585°S, 34.8848°W)
Time: 08:54:14
(UTC-03:00)

Vanguard 3 - Pass Details

Date: 23 April 2026
Orbit: 507 x 3204 km, 33.4° (Epoch: 11 May)

Event Time Altitude Azimuth Distance (km) Brightness Sun altitude
Rises 17:23:36 0° 254° (WSW) 6,904 13.2 -3.2°
Reaches altitude 10° 17:29:39 10° 264° (W) 5,570 12.9 -4.6°
Maximum altitude 17:41:52 27° 315° (NW) 3,386 11.0 -7.6°
Drops below altitude 10° 17:50:13 10° 9° (N) 3,703 10.5 -9.6°
Sets 17:53:21 0° 22° (NNE) 4,313 10.8 -10.4°
